Location: Easthampton
(42.2676°N, 72.6690°W)
Time: 05:16:53
(UTC+00:00)

N. Korean satellite - Pass Details

Date: 08 December 2022
Orbit: 407 x 444 km, 97.3° (Epoch: 28 January)

Event Time Altitude Azimuth Distance (km) Brightness Sun altitude
Rises 22:17:48 0° 207° (SSW) 2,459 10.9 -10.7°
Reaches altitude 10° 22:20:31 10° 231° (SW) 1,602 10.5 -11.2°
Maximum altitude 22:22:32 15° 268° (W) 1,342 10.0 -11.6°
Drops below altitude 10° 22:24:36 10° 304° (NW) 1,622 9.7 -11.9°
Sets 22:27:23 0° 329° (NNW) 2,510 10.3 -12.4°
